Location: *
(1.3500°S, 147.5000°W)
Time: 13:49:05
(UTC+00:00)

Cosmos 1943 - Pass Details

Date: 07 April 2020
Orbit: 832 x 851 km, 71.0° (Epoch: 04 June)

Event Time Altitude Azimuth Distance (km) Brightness Sun altitude
Rises 04:06:41 0° 202° (SSW) 3,378 6.5 -3.8°
Reaches altitude 10° 04:09:08 10° 204° (SSW) 2,443 5.9 -4.4°
Maximum altitude 04:14:40 64° 285° (WNW) 923 3.8 -5.8°
Drops below altitude 10° 04:20:12 10° 6° (N) 2,442 5.6 -7.1°
Sets 04:22:40 0° 9° (N) 3,377 6.3 -7.7°
